www.pogodaiklimat.ru
Время
и дата
12:53 08.12
13:00 08.12
13:24 08.12
13:53 08.12
14:28 08.12
14:44 08.12
14:53 08.12
15:53 08.12
16:26 08.12
16:53 08.12
17:10 08.12
17:20 08.12
17:27 08.12
17:53 08.12
18:07 08.12
18:21 08.12
18:53 08.12
19:25 08.12
19:46 08.12
19:53 08.12
20:29 08.12
20:40 08.12
20:49 08.12
20:53 08.12
21:19 08.12
21:29 08.12
21:53 08.12
22:16 08.12
22:25 08.12
22:51 08.12
22:53 08.12
23:17 08.12
23:25 08.12
23:36 08.12
23:43 08.12
23:53 08.12
00:04 09.12
00:37 09.12
00:40 09.12
00:53 09.12
01:05 09.12
01:08 09.12
01:22 09.12
01:32 09.12
01:53 09.12
02:05 09.12
02:32 09.12
02:53 09.12
Ветер
(напр.,м/с)
Видим. Явления Облачность Т
(С)
Тd
(С)
f
(%)
Тe
(С)
Тes
(С)
Комфортность P
(гПа)
Po
(гПа)
Тmin
(С)
Tmax
(С)
R
(мм)
R24
(мм)
S
(см)
СВ 2 16 км 10/10 540 м +25.6 +20.6 74 +32 +32 очень
душно
1014.9 1013.9
СВ 2 16 км 10/10 360 м +25.6 +20.6 74 +32 +32 очень
душно
1013.9
СВ 3 16 км 10/10 390 м +25.6 +20.6 74 +32 +32 очень
душно
1013.6
СВ 2 16 км 10/10 360 м +25.0 +20.6 77 +31 +31 очень
душно
1013.8 1012.9
СВ 2 16 км 10/10 330 м +25.0 +20.6 77 +31 +31 очень
душно
1012.9
СВ 2 16 км 10/10 330 м +24.4 +20.6 79 +30 +30 очень
душно
1012.6
СВ 2 16 км 10/10 300 м +25.0 +21.1 79 +32 +32 очень
душно
1013.4 1012.6
СВ 1 16 км 10/10 300 м +24.4 +21.1 82 +31 +31 очень
душно
1013.3 1012.6
СВ 2 16 км 10/10 270 м +23.9 +21.1 84 +30 +30 очень
душно
1012.3
СВ 1 16 км 10/10 270 м +23.9 +21.1 84 +30 +30 очень
душно
1013.2 1012.6
СВ 2 16 км 10/10 330 м +23.9 +21.1 84 +30 +30 очень
душно
1012.6
СВ 1 16 км 10/10 270 м +23.9 +21.1 84 +30 +30 очень
душно
1012.6
СВ 2 16 км 10/10 390 м +23.9 +21.1 84 +30 +30 очень
душно
1012.6
СВ 1 16 км 10/10 390 м +23.9 +21.1 84 +30 +30 очень
душно
1013.6 1012.9 +23.9 +25.6
СВ 1 16 км 10/10 360 м +23.9 +21.7 88 +31 +31 очень
душно
1012.9
СВ 1 16 км 10/10 360 м +23.9 +21.7 88 +31 +31 очень
душно
1012.9
В 2 16 км 10/10 420 м +23.9 +21.7 88 +31 +31 очень
душно
1013.8 1012.9
СВ 1 16 км 8/8 360 м +23.3 +21.7 91 +32 +32 очень
душно
1013.3
В 1 16 км 8/8 300 м +23.3 +21.7 91 +32 +32 очень
душно
1013.3
В 1 16 км 8/8 300 м +23.3 +21.7 91 +32 +32 очень
душно
1014.1 1013.3
В 1 16 км 10/10 390 м +23.3 +21.7 91 +32 +32 очень
душно
1013.3
штиль 0 16 км 10/10 450 м +23.3 +21.7 91 +32 +32 очень
душно
1013.6
штиль 0 16 км 10/10 390 м +23.0 +22.0 94 +31 +31 очень
душно
1013.6
В 1 16 км 10/10 390 м +23.3 +21.7 91 +32 +32 очень
душно
1014.3 1013.6
В 1 16 км 10/10 330 м +23.9 +21.7 88 +31 +31 очень
душно
1013.6
В 1 16 км 10/10 390 м +23.9 +22.2 90 +31 +31 очень
душно
1013.6
В 1 16 км 10/10 360 м +23.9 +22.2 90 +31 +31 очень
душно
1014.4 1013.6
штиль 0 16 км 10/10 270 м +23.9 +22.8 94 +32 +32 очень
душно
1013.6
ЮВ 1 16 км 10/10 210 м +23.9 +22.8 94 +32 +32 очень
душно
1013.6
ЮВ 1 16 км 5/5 270 м +23.0 +22.0 94 +31 +31 очень
душно
1013.6
ЮВ 1 16 км 5/5 270 м +23.3 +22.2 94 +32 +32 очень
душно
1014.3 1013.6
ЮВ 1 10 км дымка 8/8 360 м +22.8 +22.2 96 +31 +31 очень
душно
1013.3
ЮВ 1 8 км дымка 8/8 360 м +23.3 +22.2 94 +32 +32 очень
душно
1013.3
ЮВ 1 3 км дымка 10/10 390 м +22.8 +22.2 96 +31 +31 очень
душно
1013.3
ЮВ 1 1 км дымка 10/10 270 м +22.8 +22.2 96 +31 +31 очень
душно
1013.3
Ю 1 800 м туман 10/10 180 м +22.8 +21.7 94 +31 +31 очень
душно
1013.9 1013.3 +22.8 +23.9
ЮВ 1 800 м туман ?/? +22.8 +21.7 94 +31 +31 очень
душно
1013.3
ЮВ 1 3 км дымка 10/10 60 м +23.3 +22.2 94 +32 +32 очень
душно
1012.9
Ю 1 5 км дымка 10/10 60 м +23.3 +22.2 94 +32 +32 очень
душно
1012.9
Ю 1 11 км 10/10 90 м +23.3 +22.2 94 +32 +32 очень
душно
1013.5 1012.6
Ю 1 11 км 10/10 90 м +23.3 +22.8 97 +32 +32 очень
душно
1012.6
Ю 1 11 км 10/10 90 м +23.3 +22.8 97 +32 +32 очень
душно
1012.6
Ю 1 11 км 10/10 150 м +23.3 +22.8 97 +32 +32 очень
душно
1012.3
Ю 1 11 км 10/10 90 м +23.3 +22.8 97 +32 +32 очень
душно
1012.3
Ю 1 11 км 10/10 90 м +23.9 +22.8 94 +32 +32 очень
душно
1012.9 1012.3
Ю 1 11 км 10/10 90 м +23.9 +23.3 96 +32 +32 очень
душно
1011.9
Ю 1 13 км 10/10 120 м +24.4 +23.3 94 +33 +33 очень
душно
1011.9
Ю 1 13 км 10/10 120 м +24.4 +23.3 94 +33 +33 очень
душно
1012.4 1011.6
Местоположение метеостанции Brownsville / South Padre Island International Airport: широта 25.9142 долгота -97.4231 высота над уровнем моря 7 м.
В архиве по умолчанию представлена погода в Браунсвилле за последние 1-2 суток. Обновление информации о фактической погоде в базе происходит ежечасно! Архивные данные за месяц целиком и за предыдущие месяцы Вы можете получить, выбрав интересующий диапазон дат из раскрывающегося списка и нажав кнопку "Ввод!".
Внимание! Архив погоды МЕТАР в базе сайта по станциям, не включенным в климатический монитор, хранится не более 60 дней. Нет смысла пытаться выбрать более раннюю дату.
*Определитесь, кто Вы:
Внимание! Время в таблицах - местное (без учета летнего времени). Для получения всемирного времени необходимо вычесть поправку, которая равна -6 ч.
Смотрите также архив погоды в соседних городах и на ближайших метеорологических станциях:
Партнеры нашего сайта:      
Пояснения к столбцам:
  • Ветер - указаны скорость ветра в м/с - средняя за 10 мин, порывы в срок и между сроками (в фигурных скобках) и направление, откуда дует ветер: С - северный,
  • СВ - северо-восточный, В - восточный, ЮВ - юго-восточный, Ю - южный, ЮЗ - юго-западный, З - западный, СЗ - северо-западный.
  • Видимость - горизонтальная дальность видимости в метрах или километрах. При видимости от 1 до 10 км при отсутствии осадков обычно наблюдается дымка, при ухудшении видимости до 1 км и менее - туман. В сухую погоду видимость может ухудшаться дымом, пылью или мглою.
  • Явления - указаны атмосферные явления, наблюдавшиеся в срок или в последний час перед сроком; фигурными скобками обозначены явления, наблюдавшиеся между сроками (за 1-3 часа до срока); квадратными скобками обозначены град или гололедные отложения с указанием их диаметра в мм.
  • Облачность - указаны через наклонную черту общая и нижняя облачность в баллах и высота нижней границы облаков в метрах; квадратными скобками обозначены формы облаков: Ci - перистые, Cs - перисто-слоистые, Cc - перисто-кучевые, Ac - высококучевые, As - высокослоистые, Sc - слоисто-кучевые, Ns - слоисто-дождевые, Cu - кучевые, Cb - кучево-дождевые. Подробнее классификацию облаков см. в Атласе облаков (PDF).
  • T - Температура воздуха - температура, измеренная на высоте 2 м над землей.
  • Td - Температура точки росы - температура, при понижении до которой содержащийся в воздухе водяной пар достигнет насыщения.
  • f - Относительная влажность воздуха - влажноcть воздуха, измеренная на высоте 2 м над землей.
  • Te - Эффективная температура - температура, которую ощущает одетый по сезону человек в тени. Характеристика душности погоды. При расчете учитывается влияние влажности воздуха и скорости ветра на теплоощущения человека.
  • Tes - Эффективная температура на солнце - температура, которую ощущает человек, с поправкой на солнечный нагрев. Характеристика знойности погоды. Зависит от высоты солнца над горизонтом, облачности и скорости ветра. Ночью, в пасмурную погоду, а также при ветре 12 м/с и более поправка равна нулю.
  • P - Атмосферное давление - приведенное к уровню моря атмосферное давление.
  • Po - Атмосферное давление - измеренное на уровне метеостанции атмосферное давление.
  • Tmin - Минимальная температура - минимум температуры воздуха на высоте 2 м над землей.
  • Tmax - Максимальная температура - максимум температуры воздуха на высоте 2 м над землей.
  • R - Количество осадков - Количество выпавших осадков за период времени, мм. При наведении курсора мыши на число - период времени, за который выпало указанное количество осадков.
  • R24 - Количество осадков - Количество выпавших осадков за 24 часа, мм.
  • S - Снежный покров - Высота снежного покрова, см. При наведении курсора мыши на число - состояние снежного покрова и степень покрытия местности в баллах.